| time (UTC) | temp F | wind direction | speed knots | gust knots | rain 1hr in | rain 24hr in | rain mn in | humidity % | barometer mb |
| 20260504215208 | 58 | 331 | 0.0 | 0.0 | 0.00 | 0.00 | 0.00 | 88 | |
| 20260504214206 | 58 | 331 | 0.0 | 0.0 | 0.00 | 0.00 | 0.00 | 89 | |
| 20260504213705 | 58 | 176 | 0.0 | 0.0 | 0.00 | 0.00 | 0.00 | 90 | |
| 20260504213209 | 58 | 176 | 0.0 | 0.0 | 0.00 | 0.00 | 0.00 | 90 | |
| 20260504212707 | 58 | 173 | 0.0 | 2.6 | 0.00 | 0.00 | 0.00 | 90 | |
| 20260504210705 | 58 | 182 | 2.6 | 3.5 | 0.00 | 0.00 | 0.00 | 90 | |
| 20260504210207 | 58 | 307 | 2.6 | 3.5 | 0.00 | 0.00 | 0.00 | 90 | |
| 20260504205705 | 58 | 314 | 1.7 | 3.5 | 0.00 | 0.00 | 0.00 | 91 | |
| 20260504204706 | 58 | 314 | 2.6 | 4.3 | 0.00 | 0.00 | 0.00 | 90 | |
| 20260504204206 | 58 | 329 | 2.6 | 4.3 | 0.00 | 0.00 | 0.00 | 89 | |
| 20260504203706 | 58 | 314 | 3.5 | 5.2 | 0.00 | 0.00 | 0.00 | 89 | 1011.0 |
| 20260504203206 | 58 | 316 | 0.0 | 5.2 | 0.00 | 0.00 | 0.00 | 87 | |
| 20260504202706 | 58 | 327 | 3.5 | 6.1 | 0.00 | 0.00 | 0.00 | 86 | |
| 20260504202207 | 58 | 332 | 0.0 | 6.1 | 0.00 | 0.00 | 0.00 | 85 | 1011.0 |
| 20260504201705 | 58 | 343 | 3.5 | 6.1 | 0.00 | 0.00 | 0.00 | 84 | 1011.0 |
| 20260504201207 | 58 | 343 | 3.5 | 5.2 | 0.00 | 0.00 | 0.00 | 82 | 1011.0 |
| 20260504200206 | 59 | 342 | 3.5 | 5.2 | 0.00 | 0.00 | 0.00 | 81 | 1011.0 |
| 20260504195705 | 60 | 340 | 2.6 | 5.2 | 0.00 | 0.00 | 0.00 | 83 | |
| 20260504195207 | 61 | 21 | 1.7 | 4.3 | 0.00 | 0.00 | 0.00 | 84 | |
| 20260504194708 | 62 | 340 | 2.6 | 3.5 | 0.00 | 0.00 | 0.00 | 84 | 1010.0 |
| 20260504194206 | 62 | 7 | 0.0 | 3.5 | 0.00 | 0.00 | 0.00 | 83 | 1010.0 |
| 20260504193706 | 62 | 117 | 0.0 | 3.5 | 0.00 | 0.00 | 0.00 | 83 | 1010.0 |
| 20260504193207 | 62 | 106 | 1.7 | 3.5 | 0.00 | 0.00 | 0.00 | 82 | 1010.0 |
| 20260504192706 | 62 | 353 | 0.0 | 1.7 | 0.00 | 0.00 | 0.00 | 82 | 1010.0 |
| 20260504192207 | 62 | 0 | 0.0 | 0.0 | 0.00 | 0.00 | 0.00 | 82 | 1010.0 |
| 20260504191706 | 62 | 343 | 0.0 | 3.5 | 0.00 | 0.00 | 0.00 | 82 | 1010.0 |
| 20260504191206 | 62 | 120 | 0.0 | 3.5 | 0.00 | 0.00 | 0.00 | 83 | 1010.0 |
| 20260504190708 | 62 | 344 | 0.0 | 3.5 | 0.00 | 0.00 | 0.00 | 83 | 1010.0 |
| 20260504185706 | 62 | 94 | 0.0 | 3.5 | 0.00 | 0.00 | 0.00 | 84 | 1010.0 |
| 20260504184707 | 62 | 124 | 2.6 | 4.3 | 0.00 | 0.00 | 0.00 | 84 | 1010.0 |
| 20260504184205 | 62 | 113 | 0.0 | 4.3 | 0.00 | 0.00 | 0.00 | 83 | 1010.0 |
| 20260504183206 | 62 | 138 | 0.0 | 4.3 | 0.00 | 0.00 | 0.00 | 82 | 1010.0 |
| 20260504182206 | 62 | 139 | 2.6 | 5.2 | 0.00 | 0.00 | 0.00 | 81 | 1009.0 |
| 20260504181706 | 63 | 163 | 2.6 | 5.2 | 0.00 | 0.00 | 0.00 | 80 | 1009.0 |
| 20260504180706 | 63 | 132 | 2.6 | 3.5 | 0.00 | 0.00 | 0.00 | 77 | 1009.0 |
| 20260504180208 | 63 | 135 | 3.5 | 3.5 | 0.00 | 0.00 | 0.00 | 77 | |
| 20260504175205 | 63 | 128 | 3.5 | 3.5 | 0.00 | 0.00 | 0.00 | 76 | 1009.0 |
| 20260504174706 | 63 | 144 | 1.7 | 3.5 | 0.00 | 0.00 | 0.00 | 75 | 1009.0 |
| 20260504174206 | 63 | 167 | 2.6 | 3.5 | 0.00 | 0.00 | 0.00 | 76 | 1009.0 |
| 20260504173706 | 63 | 132 | 0.0 | 3.5 | 0.00 | 0.00 | 0.00 | 76 | 1009.0 |
| 20260504173206 | 63 | 158 | 1.7 | 4.3 | 0.00 | 0.00 | 0.00 | 76 | 1009.0 |
| 20260504172707 | 63 | 119 | 2.6 | 5.2 | 0.00 | 0.00 | 0.00 | 76 | 1009.0 |
| 20260504172206 | 63 | 165 | 0.0 | 5.2 | 0.00 | 0.00 | 0.00 | 76 | 1009.0 |
| 20260504171705 | 63 | 165 | 3.5 | 5.2 | 0.00 | 0.00 | 0.00 | 75 | 1009.0 |
| 20260504171207 | 64 | 161 | 0.0 | 3.5 | 0.00 | 0.00 | 0.00 | 75 | 1009.0 |
| 20260504170705 | 64 | 137 | 2.6 | 4.3 | 0.00 | 0.00 | 0.00 | 74 | 1009.0 |
| 20260504170206 | 64 | 161 | 0.0 | 4.3 | 0.00 | 0.00 | 0.00 | 73 | 1009.0 |
| 20260504160207 | 64 | 136 | 0.0 | 3.5 | 0.00 | 0.00 | 0.00 | 74 | |
| 20260504150706 | 63 | 141 | 3.5 | 3.5 | 0.00 | 0.00 | 0.00 | 74 | |
| 20260504150206 | 64 | 137 | 2.6 | 3.5 | 0.00 | 0.00 | 0.00 | 72 | |
| 20260504141206 | 64 | 169 | 0.0 | 6.1 | 0.00 | 0.00 | 0.00 | 71 | 1011.0 |
| 20260504140706 | 64 | 125 | 2.6 | 5.2 | 0.00 | 0.00 | 0.00 | 71 | 1011.0 |
| 20260504140205 | 64 | 112 | 3.5 | 5.2 | 0.00 | 0.00 | 0.00 | 69 | 1011.0 |
| 20260504130705 | 65 | 144 | 4.3 | 7.0 | 0.00 | 0.00 | 0.00 | 72 | 1010.0 |
| 20260504130206 | 65 | 137 | 3.5 | 5.2 | 0.00 | 0.00 | 0.00 | 73 | |
| 20260504120206 | 65 | 118 | 6.1 | 7.8 | 0.00 | 0.00 | 0.00 | 84 | |
| 20260504110406 | 70 | 124 | 2.6 | 4.3 | 0.00 | 0.00 | 0.00 | 55 | |
| 20260504100405 | 71 | 95 | 2.6 | 5.2 | 0.00 | 0.00 | 0.00 | 52 | |
| 20260504081905 | 67 | 332 | 0.0 | 2.6 | 0.00 | 0.00 | 0.00 | 64 | 1011.0 |
| 20260504081405 | 66 | 113 | 0.0 | 3.5 | 0.00 | 0.00 | 0.00 | 66 | |
| 20260504080905 | 66 | 131 | 0.0 | 4.3 | 0.00 | 0.00 | 0.00 | 66 | 1011.0 |
| 20260504070404 | 64 | 335 | 0.0 | 0.0 | 0.00 | 0.00 | 0.00 | 72 | 1012.0 |
| 20260504050405 | 59 | 336 | 0.0 | 3.5 | 0.00 | 0.00 | 0.00 | 89 | 1012.0 |
| 20260504045905 | 59 | 336 | 0.0 | 3.5 | 0.00 | 0.00 | 0.00 | 89 | 1012.0 |
| 20260504045405 | 59 | 343 | 0.0 | 3.5 | 0.00 | 0.00 | 0.00 | 88 | 1012.0 |
| 20260504044405 | 59 | 357 | 0.0 | 0.0 | 0.00 | 0.00 | 0.00 | 89 | 1012.0 |
| 20260504043904 | 59 | 319 | 0.0 | 0.0 | 0.00 | 0.00 | 0.00 | 89 | 1012.0 |
| 20260504043405 | 59 | 319 | 0.0 | 0.0 | 0.00 | 0.00 | 0.00 | 89 | 1012.0 |
| 20260504042904 | 59 | 319 | 0.0 | 0.0 | 0.00 | 0.00 | 0.00 | 90 | 1012.0 |
| 20260504042406 | 59 | 319 | 0.0 | 0.0 | 0.00 | 0.00 | 0.00 | 89 | 1012.0 |
| 20260504041903 | 59 | 319 | 0.0 | 0.0 | 0.00 | 0.00 | 0.00 | 89 | 1012.0 |
| 20260504041405 | 59 | 319 | 0.0 | 0.0 | 0.00 | 0.00 | 0.00 | 89 | 1012.0 |
| 20260504040905 | 59 | 319 | 0.0 | 0.0 | 0.00 | 0.00 | 0.00 | 89 | 1012.0 |
| 20260504040405 | 59 | 319 | 0.0 | 0.0 | 0.00 | 0.00 | 0.00 | 88 | 1012.0 |
| 20260504035904 | 59 | 319 | 0.0 | 0.0 | 0.00 | 0.00 | 0.00 | 88 | 1012.0 |
| 20260504035405 | 59 | 319 | 0.0 | 0.0 | 0.00 | 0.00 | 0.00 | 88 | 1012.0 |
| 20260504034404 | 59 | 319 | 0.0 | 0.0 | 0.00 | 0.00 | 0.00 | 87 | 1012.0 |
| 20260504033903 | 59 | 319 | 0.0 | 0.0 | 0.00 | 0.00 | 0.00 | 87 | 1012.0 |
| 20260504033405 | 59 | 319 | 0.0 | 0.0 | 0.00 | 0.00 | 0.00 | 86 | 1012.0 |
| 20260504032905 | 59 | 319 | 0.0 | 0.0 | 0.00 | 0.00 | 0.00 | 85 | 1012.0 |
| 20260504032404 | 59 | 319 | 0.0 | 0.0 | 0.00 | 0.00 | 0.00 | 84 | 1012.0 |
| 20260504031904 | 59 | 319 | 0.0 | 0.0 | 0.00 | 0.00 | 0.00 | 84 | 1012.0 |
| 20260504030905 | 59 | 319 | 0.0 | 0.0 | 0.00 | 0.00 | 0.00 | 84 | 1012.0 |
| 20260504030405 | 59 | 319 | 0.0 | 0.0 | 0.00 | 0.00 | 0.00 | 84 | 1012.0 |
| 20260504025904 | 59 | 319 | 0.0 | 0.0 | 0.00 | 0.00 | 0.00 | 84 | 1012.0 |
| 20260504025405 | 59 | 319 | 0.0 | 2.6 | 0.00 | 0.00 | 0.00 | 84 | 1012.0 |
| 20260504024404 | 59 | 319 | 0.0 | 2.6 | 0.00 | 0.00 | 0.00 | 84 | 1012.0 |
| 20260504023903 | 59 | 319 | 0.0 | 2.6 | 0.00 | 0.00 | 0.00 | 85 | 1012.0 |
| 20260504023404 | 59 | 319 | 0.0 | 2.6 | 0.00 | 0.00 | 0.00 | 85 | 1012.0 |
| 20260504022904 | 59 | 319 | 0.0 | 2.6 | 0.00 | 0.00 | 0.00 | 85 | 1012.0 |
| 20260504022404 | 59 | 328 | 0.0 | 2.6 | 0.00 | 0.00 | 0.00 | 85 | 1012.0 |
| 20260504021904 | 59 | 315 | 0.0 | 2.6 | 0.00 | 0.00 | 0.00 | 86 | 1012.0 |
| 20260504021404 | 59 | 307 | 0.0 | 0.0 | 0.00 | 0.00 | 0.00 | 87 | 1012.0 |
| 20260504020904 | 59 | 307 | 0.0 | 0.0 | 0.00 | 0.00 | 0.00 | 87 | 1012.0 |
| 20260504020407 | 59 | 307 | 0.0 | 0.0 | 0.00 | 0.00 | 0.00 | 87 | 1012.0 |
| 20260504015904 | 59 | 307 | 0.0 | 0.0 | 0.00 | 0.00 | 0.00 | 88 | 1012.0 |
| 20260504015404 | 59 | 307 | 0.0 | 0.0 | 0.00 | 0.00 | 0.00 | 88 | 1012.0 |
| 20260504014904 | 59 | 307 | 0.0 | 0.0 | 0.00 | 0.00 | 0.00 | 88 | 1012.0 |
| 20260504014405 | 59 | 307 | 0.0 | 0.0 | 0.00 | 0.00 | 0.00 | 88 | 1012.0 |
| 20260504013904 | 59 | 307 | 0.0 | 0.0 | 0.00 | 0.00 | 0.00 | 89 | 1012.0 |
| 20260504012404 | 59 | 307 | 0.0 | 0.0 | 0.00 | 0.00 | 0.00 | 90 | 1012.0 |
| 20260504011904 | 59 | 307 | 0.0 | 0.0 | 0.00 | 0.00 | 0.00 | 90 | 1012.0 |
| 20260504011404 | 59 | 307 | 0.0 | 0.0 | 0.00 | 0.00 | 0.00 | 91 | 1012.0 |
| 20260504010904 | 59 | 307 | 0.0 | 0.0 | 0.00 | 0.00 | 0.00 | 91 | 1013.0 |
| 20260504010404 | 59 | 307 | 0.0 | 0.0 | 0.00 | 0.00 | 0.00 | 91 | 1013.0 |
| 20260504005904 | 59 | 307 | 0.0 | 0.0 | 0.00 | 0.00 | 0.00 | 91 | 1013.0 |
| 20260504005405 | 59 | 307 | 0.0 | 0.0 | 0.00 | 0.00 | 0.00 | 91 | 1013.0 |
| 20260504004905 | 58 | 307 | 0.0 | 1.7 | 0.00 | 0.00 | 0.00 | 91 | 1013.0 |
| 20260504003404 | 58 | 307 | 0.0 | 2.6 | 0.00 | 0.00 | 0.00 | 91 | 1013.0 |
| 20260504002903 | 58 | 307 | 0.0 | 2.6 | 0.00 | 0.00 | 0.00 | 92 | 1013.0 |
| 20260504002403 | 58 | 307 | 0.0 | 2.6 | 0.00 | 0.00 | 0.00 | 92 | 1013.0 |
| 20260504001404 | 58 | 302 | 0.0 | 0.0 | 0.00 | 0.00 | 0.00 | 92 | 1013.0 |
| 20260504000905 | 58 | 302 | 0.0 | 0.0 | 0.00 | 0.00 | 0.00 | 92 | 1013.0 |
| 20260504000406 | 58 | 302 | 0.0 | 0.0 | 0.00 | 0.00 | 0.00 | 92 | 1013.0 |
| 20260503235903 | 58 | 302 | 0.0 | 0.0 | 0.00 | 0.00 | 0.00 | 92 | 1013.0 |
| 20260503235405 | 58 | 302 | 0.0 | 0.0 | 0.00 | 0.00 | 0.00 | 92 | 1013.0 |
| 20260503234904 | 58 | 302 | 0.0 | 2.6 | 0.00 | 0.00 | 0.00 | 92 | 1013.0 |
| 20260503233904 | 58 | 302 | 0.0 | 3.5 | 0.00 | 0.00 | 0.00 | 92 | 1013.0 |
| 20260503232905 | 58 | 305 | 0.0 | 3.5 | 0.00 | 0.00 | 0.00 | 93 | 1013.0 |
| 20260503231903 | 58 | 277 | 0.0 | 0.0 | 0.00 | 0.00 | 0.00 | 94 | 1013.0 |
| 20260503231404 | 58 | 277 | 0.0 | 0.0 | 0.00 | 0.00 | 0.00 | 94 | 1013.0 |
| 20260503230904 | 58 | 277 | 0.0 | 0.0 | 0.00 | 0.00 | 0.00 | 94 | 1013.0 |
| 20260503230405 | 58 | 277 | 0.0 | 0.0 | 0.00 | 0.00 | 0.00 | 94 | 1013.0 |
| 20260503225905 | 58 | 277 | 0.0 | 0.0 | 0.00 | 0.00 | 0.00 | 94 | 1013.0 |
| 20260503225404 | 58 | 277 | 0.0 | 2.6 | 0.00 | 0.00 | 0.00 | 94 | 1013.0 |
| 20260503224405 | 58 | 277 | 0.0 | 2.6 | 0.00 | 0.00 | 0.00 | 94 | 1013.0 |
| 20260503223904 | 58 | 298 | 0.0 | 0.0 | 0.00 | 0.00 | 0.00 | 94 | 1013.0 |
| 20260503223404 | 58 | 191 | 0.0 | 0.0 | 0.00 | 0.00 | 0.00 | 94 | 1013.0 |
| 20260503222904 | 58 | 191 | 0.0 | 0.0 | 0.00 | 0.00 | 0.00 | 94 | 1013.0 |
| 20260503222404 | 58 | 191 | 0.0 | 0.0 | 0.00 | 0.00 | 0.00 | 94 | 1013.0 |
| 20260503221904 | 58 | 125 | 0.0 | 2.6 | 0.00 | 0.00 | 0.00 | 94 | 1013.0 |
| 20260503221404 | 58 | 155 | 0.0 | 2.6 | 0.00 | 0.00 | 0.00 | 94 | 1013.0 |
| 20260503220405 | 58 | 173 | 0.0 | 2.6 | 0.00 | 0.00 | 0.00 | 94 | 1013.0 |
| 20260503215904 | 58 | 294 | 1.7 | 2.6 | 0.00 | 0.00 | 0.00 | 94 | 1013.0 |